Weather observations for the past three days for
Pompano Beach, Pompano Beach Airpark
Imperial (Metric)
Date Time (edt) Wind (mph) Vis. (mi.) Weather Sky Cond. Temperature (ºF) Relative Humidity Wind Chill (°F) Heat Index (°F) Pressure Precipitation (in)
Air Dwpt 6 hour altimeter (in) sea level (mb) 1 hr 3 hr 6 hr
Max. Min.
15 22:53 Calm 10.00 Mostly Cloudy BKN110 82 72 72% 87 30.01 1016.5
15 21:53 Calm 10.00 Overcast FEW075 OVC100 82 71.1 69% 86 30.02 1016.7
15 20:53 Calm 10.00 Overcast OVC110 82.9 70 65% 87 30 1015.9
15 19:53 Calm 10.00 Overcast OVC110 84 71.1 89.1 84 65% 89 29.99 1015.7
15 18:53 Calm 10.00 Overcast OVC110 84 72 67% 90 29.97 1014.9
15 17:53 S 7 10.00 Overcast OVC120 84.9 71.1 63% 90 29.97 1014.9
15 16:53 Calm 10.00 Overcast OVC110 87.1 66 50% 89 29.98 1015.2
15 15:53 Calm 10.00 Mostly Cloudy BKN120 88 64.9 46% 90 29.99 1015.5
15 14:53 Calm 10.00 Overcast OVC110 88 64 45% 89 29.99 1015.6
15 13:53 Calm 10.00 Mostly Cloudy BKN100 87.1 63 89.1 80.1 45% 88 30 1015.9
15 12:53 Calm 10.00 Partly Cloudy SCT100 88 64.9 46% 90 30 1016.0
15 11:53 W 9 10.00 Partly Cloudy SCT100 84.9 69.1 59% 89 30 1015.8
15 10:53 Calm 10.00 Fair CLR 84.9 66.9 55% 88 30 1016.1
15 09:53 Calm 10.00 Mostly Cloudy SCT030 SCT110 BKN140 84 69.1 61% 88 29.99 1015.7
15 08:53 Calm 10.00 Partly Cloudy FEW075 SCT095 SCT110 82 75 79% 89 30 1015.8
15 07:53 Calm 10.00 Overcast BKN100 OVC120 80.1 75 80.1 78.1 85% 85 29.98 1015.3
15 06:53 Calm 10.00 Mostly Cloudy BKN110 79 75 88% 83 29.96 1014.7
15 05:53 Calm 10.00 Partly Cloudy SCT120 78.1 75 90% 81 29.94 1014.0
15 04:53 Calm 10.00 Fair CLR 78.1 73.9 87% 81 29.93 1013.5
15 03:53 Calm 10.00 Overcast OVC110 78.1 73.9 87% 81 29.93 1013.4
15 02:53 Calm 10.00 Fair CLR 79 73 82% 82 29.92 1013.4
15 01:53 Calm 10.00 Fair CLR 79 73 84.9 78.1 82% 82 29.92 1013.3
15 00:53 Calm 10.00 Fair CLR 79 72 79% 82 29.93 1013.5
14 23:53 Calm 10.00 Fair CLR 80.1 72 76% 84 29.94 1013.9
14 22:53 Calm 10.00 Partly Cloudy SCT085 80.1 72 76% 84 29.95 1014.4
14 21:53 Calm 10.00 Fair CLR 82 75 79% 89 29.92 1013.3
14 20:53 Calm 10.00 Fair CLR 84 73.9 72% 91 29.91 1013.1
14 19:53 Calm 10.00 Fair CLR 84.9 73 88 77 68% 92 29.91 1012.8 0.16
14 18:53 Calm 10.00 Fair CLR 87.1 72 61% 94 29.89 1012.2
14 17:53 Calm 10.00 Fair CLR 87.1 72 61% 94 29.87 1011.4
14 16:53 Calm 10.00 Overcast SCT025 BKN055 OVC125 86 73 65% 93 29.88 1011.9 0.16
14 15:53 Calm 10.00 Fair CLR 81 75 82% 87 29.9 1012.6
14 14:53 Calm 10.00 Thunderstorm in Vicinity Light Rain SCT028 BKN033 OVC050 79 75 88% 83 29.91 1012.9 0.16
14 13:53 Calm 1.00 Thunderstorm Heavy Rain SCT009 BKN035 78.1 73 86 77 85% 81 29.92 1013.3 0.14 0.2
14 12:53 Calm 10.00 Partly Cloudy SCT100 84.9 75.9 75% 94 29.92 1013.2
14 11:53 Calm 10.00 Mostly Cloudy FEW021 SCT028 BKN110 86 77 75% 97 29.91 1013.0
14 10:53 Calm 10.00 Mostly Cloudy FEW035 BKN120 84 75 74% 92 29.91 1012.8 0.06
14 09:53 Calm 10.00 Mostly Cloudy BKN110 81 75 82% 87 29.91 1012.8
14 08:53 Calm 10.00 Mostly Cloudy FEW055 FEW075 BKN100 77 75 94% 78 29.92 1013.4 0.06
14 07:53 Calm 10.00 Mostly Cloudy BKN047 BKN065 78.1 73.9 82 77 87% 81 29.93 1013.5 0.01 0.01
14 06:53 Calm 10.00 Overcast BKN043 BKN055 OVC070 77 73 88% 78 29.91 1013.1
14 05:53 Calm 10.00 Overcast OVC075 77 73.9 90% 78 29.88 1012.0
14 04:53 Calm 10.00 Mostly Cloudy BKN070 77 73.9 90% 78 29.87 1011.7
14 03:53 Calm 10.00 A Few Clouds FEW020 77 73.9 90% 78 29.86 1011.2
14 02:53 Calm 10.00 Light Rain FEW011 BKN080 OVC090 78.1 73.9 87% 81 29.87 1011.4
14 01:53 Calm 10.00 Mostly Cloudy BKN016 BKN021 BKN027 81 77 82 75.9 88% 88 29.86 1011.2
14 00:53 Calm 10.00 Overcast SCT012 BKN018 OVC033 82 78.1 88% 91 29.88 1011.7
13 23:53 Calm 10.00 Overcast FEW014 BKN019 OVC029 81 75.9 85% 87 29.91 1013.0
13 22:53 Calm 10.00 Partly Cloudy SCT120 79 75.9 90% 83 29.93 1013.7
13 21:53 Calm 10.00 Mostly Cloudy BKN120 78.1 75.9 93% 81 29.92 1013.1
13 20:53 Calm 10.00 Fair CLR 75.9 73.9 94% 75 29.9 1012.6
13 19:53 Calm 7.00 Light Rain BKN090 75.9 73 86 75 91% 76 29.9 1012.5 0.02 0.22
13 18:53 Calm 5.00 Light Rain Fog/Mist OVC090 75 73.9 96% 73 29.89 1012.2 0.1
13 17:53 Calm 1.00 Heavy Rain Fog/Mist BKN017 BKN035 OVC070 75.9 73 91% 76 29.92 1013.1 0.09
13 16:53 Calm 10.00 Thunderstorm in Vicinity Light Rain BKN011 BKN034 OVC100 80.1 77 90% 86 29.9 1012.7 0.01 0.01
13 15:53 Calm 10.00 Overcast SCT034 OVC095 82.9 77 82% 92 29.91 1012.8
13 14:53 Calm 10.00 Overcast BKN023 BKN028 OVC035 82.9 75.9 79% 91 29.91 1012.9
13 13:53 Calm 10.00 Mostly Cloudy SCT032 BKN050 BKN065 86 75.9 87.1 79 72% 96 29.91 1012.8
13 12:53 Calm 10.00 Light Rain BKN027 BKN038 OVC095 86 75.9 72% 96 29.91 1012.9
13 11:53 Calm 10.00 Overcast SCT023 BKN075 OVC090 86 75.9 72% 96 29.92 1013.3
13 10:53 Calm 10.00 Light Rain FEW023 BKN075 OVC090 84 75 74% 92 29.93 1013.5
13 09:53 Calm 10.00 Overcast SCT075 OVC100 84 75.9 77% 93 29.93 1013.4
13 08:53 S 6 10.00 Overcast BKN080 OVC095 81 75.9 85% 87 29.92 1013.4
13 06:53 SW 5 10.00 A Few Clouds FEW100 78.1 73.9 87% 81 29.9 1012.5
13 05:53 Calm 10.00 Mostly Cloudy BKN100 78.1 73 85% 81 29.9 1012.6
13 04:53 Calm 10.00 Fair CLR 77 72 85% 78 29.89 1012.1
13 03:53 Calm 10.00 Fair CLR 77 72 85% 78 29.88 1012.0
13 02:53 Calm 10.00 A Few Clouds FEW070 FEW110 77 72 85% 78 29.89 1012.2
13 01:53 Calm 10.00 Partly Cloudy SCT110 77 73 77 75 88% 78 29.89 1012.3 0.2
13 00:53 Calm 10.00 Mostly Cloudy BKN110 77 72 85% 78 29.93 1013.6 0.01
12 23:53 Calm 10.00 Light Rain FEW070 BKN110 75.9 73.9 94% 75 29.95 1014.1 0.01
Date Time (edt) Wind (mph) Vis. (mi.) Weather Sky Cond. Air Dwpt Max. Min. Relative Humidity Wind Chill (°F) Heat Index (°F) altimeter (in) sea level (mb) 1 hr 3 hr 6 hr
6 hour
Temperature (ºF) Pressure Precipitation (in)